Terminal Aerodrome Forecast
Issued by NWS

Home | Current Version | Previous Version | Text Only | Print | Product List | Glossary On
Versions: 1 2 3 4 5 6 7 8 9 10 11 12 13
000
FTUS41 KPBZ 041728
TAFDUJ
TAF
KDUJ 041728Z 0418/0518 23012G20KT P6SM BKN250
     FM050700 22007KT P6SM -SHRA OVC035
     FM051000 26007KT 4SM -SHRA BR OVC015
     FM051300 VRB04KT P6SM OVC015=

USA.gov is the U.S. government's official web portal to all federal, state and local government web resources and services.